Terminal Aerodrome Forecast
Issued by NWS Sioux Falls, SD

Home | Current Version | Previous Version | Graphics & Text | Print | Product List | Glossary On
Versions: 1 2 3 4 5 6 7 8 9 10 11 12 13 14 15 16
000
FTUS43 KFSD 181720
TAFHON
TAF
KHON 181720Z 1818/1918 11008KT P6SM -SHRA SCT035 OVC080
     FM190000 04008KT P6SM OVC020
     FM190500 32012G19KT 5SM BR OVC008
     FM191000 33016KT P6SM OVC015
     FM191200 33017G25KT P6SM OVC050=

USA.gov is the U.S. government's official web portal to all federal, state and local government web resources and services.